Regional Weather Roundup
Issued by NWS

Home | Current Version | Previous Version | Text Only | Print | Product List | Glossary Off
Versions: 1 2 3 4 5 6 7 8 9 10 11 12 13 14 15 16 17 18 19 20 21 22 23 24 25 26 27 28 29 30 31 32 33 34 35 36 37 38 39 40 41 42 43 44 45 46 47 48 49 50

000
ASUS43 KLSX 232107
RWRMO

WEATHER SUMMARY FOR MISSOURI
NATIONAL WEATHER SERVICE SPRINGFIELD MO
400 PM CDT SAT SEP 23 2017

NOTE: "FAIR" INDICATES FEW OR NO CLOUDS BELOW 12,000 FEET WITH NO
       SIGNIFICANT WEATHER AND/OR OBSTRUCTIONS TO VISIBILITY.
       CURRENT SKY AND/OR WEATHER CONDITIONS ARE NOT AVAILABLE FOR
       CHILLICOTHE AND FARMINGTON.

MOZ001>031-035>038-043-044-053-054-232200-
...NORTHERN AND WESTERN MISSOURI...

CITY           SKY/WX    TMP DP  RH WIND       PRES   REMARKS
KANSAS CTY INT MOSUNNY   88  69  53 S9        29.97F HX  92
KANSAS C DTWN  MOSUNNY   91  69  48 SE9       29.95F HX  96
LEE`S SUMMIT   MOSUNNY   87  69  54 SE12      29.98F HX  91
ST JOSEPH      MOSUNNY   91  67  44 S12       29.94F HX  94
CHILLICOTHE      N/A     91  67  44 S6        29.97F HX  94
KIRKSVILLE     MOSUNNY   89  62  40 SE7       29.99F

$$
MOZ066>068-077>081-088>096-101>105-232200-
...SOUTHWEST MISSOURI...

CITY           SKY/WX    TMP DP  RH WIND       PRES   REMARKS
SPRINGFIELD    SUNNY     90  60  36 S9        29.98F
JOPLIN         MOSUNNY   90  65  43 SE7       29.97F HX  92
BRANSON        MOSUNNY   91  59  33 E9        30.01F HX  90

$$
MOZ032>034-039>042-045>050-055>058-069>072-232200-
...CENTRAL MISSOURI...

CITY           SKY/WX    TMP DP  RH WIND       PRES   REMARKS
COLUMBIA       MOSUNNY   89  64  43 E6        29.99F HX  90
JEFFERSON CITY PTSUNNY   91  63  39 E3        29.97F HX  92
ROLLA          SUNNY     92  62  36 NE12      30.00F HX  92
SEDALIA        MOSUNNY   91  67  44 SE7       29.99F HX  94
WHITEMAN AFB   MOSUNNY   89  68  49 CALM      29.97F HX  93
WARRENSBURG    SUNNY     88  66  48 SE7       29.98F HX  90
OSAGE BEACH    PTSUNNY   91  64  40 SE6       29.99F HX  92

$$
MOZ051-052-059>065-232200-
...EAST CENTRAL MISSOURI...

CITY           SKY/WX    TMP DP  RH WIND       PRES   REMARKS
ST LOUIS INTL  MOSUNNY   91  61  36 E9        30.00F HX  91
SPIRIT OF STL  MOSUNNY   91  64  40 NE8       29.98F HX  92
ST CHARLES     MOSUNNY   93  60  33 E9        29.99F HX  93

$$
MOZ072>076-082>087-097>100-106>115-232200-
...SOUTH CENTRAL AND SOUTHEAST MISSOURI...

CITY           SKY/WX    TMP DP  RH WIND       PRES   REMARKS
CAPE GIRARDEAU SUNNY     92  64  39 N8        29.97F HX  93
FARMINGTON     MOSUNNY   91  65  41 SE12      30.01F HX  93
POPLAR BLUFF   SUNNY     92  64  39 VRB6      29.96F HX  93
WEST PLAINS    MOSUNNY   91  60  35 E6G17     30.01F HX  90

$$


USA.gov is the U.S. government's official web portal to all federal, state and local government web resources and services.